• In Belarus
  • List of Countries
  • For 7 days
  • Water Temperature
  • Weather Map
  • Weather Widgets
  • user-avatar
    Login

    Hourly Weather Polotsk

    Today, 10 April, Friday

    Time Temperature Precipitation Wind Pressure Humidity
    00:00 +1°C° 0 mm 4 mps 746 mmHg 77%
    01:00 0°C° 0 mm 4 mps 746 mmHg 77%
    02:00 -1°C° 0 mm 4 mps 746 mmHg 77%
    03:00 -1°C° 0 mm 4 mps 747 mmHg 79%
    04:00 -2°C° 0 mm 4 mps 747 mmHg 82%
    05:00 -2°C° 0 mm 4 mps 747 mmHg 84%
    06:00 -1°C° 0 mm 4 mps 748 mmHg 82%
    07:00 0°C° 0 mm 4 mps 748 mmHg 79%
    08:00 +1°C° 0 mm 4 mps 748 mmHg 77%
    09:00 +3°C° 0 mm 4 mps 749 mmHg 69%
    10:00 +5°C° 0 mm 5 mps 749 mmHg 61%
    11:00 +6°C° 0 mm 5 mps 749 mmHg 54%
    12:00 +7°C° 0 mm 5 mps 749 mmHg 50%
    13:00 +7°C° 0 mm 5 mps 749 mmHg 46%
    14:00 +8°C° 0 mm 5 mps 749 mmHg 43%
    15:00 +7°C° 0 mm 5 mps 749 mmHg 46%
    16:00 +7°C° 0 mm 5 mps 749 mmHg 49%
    17:00 +6°C° 0 mm 5 mps 749 mmHg 51%
    18:00 +5°C° 0.1 mm 4 mps 749 mmHg 58%
    19:00 +4°C° 0.1 mm 3 mps 749 mmHg 65%
    20:00 +4°C° 0.1 mm 2 mps 749 mmHg 72%
    21:00 +4°C° 0 mm 2 mps 749 mmHg 71%
    22:00 +3°C° 0 mm 3 mps 749 mmHg 69%
    23:00 +1°C° 0 mm 4 mps 749 mmHg 67%

    Tomorrow, 11 April, Saturday

    Time Temperature Precipitation Wind Pressure Humidity
    00:00 +1°C° 0 mm 3 mps 750 mmHg 69%
    01:00 +1°C° 0 mm 3 mps 750 mmHg 71%
    02:00 0°C° 0 mm 3 mps 750 mmHg 73%
    03:00 -1°C° 0 mm 3 mps 750 mmHg 74%
    04:00 -2°C° 0 mm 4 mps 751 mmHg 75%
    05:00 -3°C° 0 mm 4 mps 751 mmHg 76%
    06:00 -2°C° 0 mm 4 mps 751 mmHg 72%
    07:00 -1°C° 0 mm 5 mps 752 mmHg 69%
    08:00 -1°C° 0 mm 6 mps 752 mmHg 65%
    09:00 +1°C° 0 mm 6 mps 752 mmHg 57%
    10:00 +2°C° 0 mm 6 mps 753 mmHg 50%
    11:00 +3°C° 0 mm 6 mps 753 mmHg 42%
    12:00 +4°C° 0 mm 6 mps 753 mmHg 39%
    13:00 +5°C° 0 mm 5 mps 754 mmHg 35%
    14:00 +6°C° 0 mm 5 mps 754 mmHg 31%
    15:00 +6°C° 0 mm 5 mps 754 mmHg 32%
    16:00 +6°C° 0 mm 5 mps 754 mmHg 33%
    17:00 +5°C° 0 mm 4 mps 753 mmHg 35%
    18:00 +4°C° 0 mm 4 mps 754 mmHg 42%
    19:00 +3°C° 0 mm 3 mps 754 mmHg 50%
    20:00 +3°C° 0 mm 2 mps 754 mmHg 57%
    21:00 +2°C° 0 mm 2 mps 754 mmHg 61%
    22:00 +2°C° 0 mm 2 mps 754 mmHg 65%
    23:00 +2°C° 0 mm 2 mps 754 mmHg 69%

    Day after tomorrow, 12 April, Sunday

    Time Temperature Precipitation Wind Pressure Humidity
    00:00 +2°C° 0 mm 2 mps 754 mmHg 74%
    01:00 +1°C° 0 mm 2 mps 754 mmHg 79%
    02:00 +1°C° 0 mm 2 mps 754 mmHg 84%
    03:00 +1°C° 0 mm 2 mps 754 mmHg 85%
    04:00 +1°C° 0 mm 2 mps 753 mmHg 86%
    05:00 -1°C° 0 mm 2 mps 753 mmHg 86%
    06:00 +2°C° 0 mm 2 mps 753 mmHg 80%
    07:00 +2°C° 0 mm 3 mps 753 mmHg 73%
    08:00 +4°C° 0 mm 3 mps 753 mmHg 66%
    09:00 +5°C° 0 mm 4 mps 752 mmHg 59%
    10:00 +6°C° 0 mm 4 mps 752 mmHg 52%
    11:00 +7°C° 0 mm 5 mps 751 mmHg 46%
    12:00 +7°C° 0 mm 5 mps 751 mmHg 44%
    13:00 +8°C° 0 mm 6 mps 750 mmHg 42%
    14:00 +8°C° 0 mm 6 mps 750 mmHg 41%
    15:00 +8°C° 0 mm 6 mps 749 mmHg 45%
    16:00 +8°C° 0 mm 6 mps 749 mmHg 49%
    17:00 +7°C° 0 mm 6 mps 748 mmHg 54%
    18:00 +7°C° 0 mm 6 mps 747 mmHg 57%
    19:00 +6°C° 0 mm 5 mps 747 mmHg 60%
    20:00 +6°C° 0 mm 5 mps 746 mmHg 63%
    21:00 +6°C° 0.2 mm 5 mps 745 mmHg 68%
    22:00 +5°C° 0.2 mm 6 mps 745 mmHg 72%
    23:00 +5°C° 0.2 mm 6 mps 744 mmHg 77%

    13 April, Monday

    Time Temperature Precipitation Wind Pressure Humidity
    00:00 +5°C° 0.1 mm 6 mps 743 mmHg 74%
    01:00 +5°C° 0.1 mm 6 mps 743 mmHg 72%
    02:00 +7°C° 0.1 mm 6 mps 742 mmHg 69%
    03:00 +7°C° 0.1 mm 6 mps 742 mmHg 70%
    04:00 +5°C° 0.1 mm 6 mps 741 mmHg 70%
    05:00 +5°C° 0.1 mm 6 mps 741 mmHg 71%
    06:00 +7°C° 0 mm 6 mps 740 mmHg 68%
    07:00 +8°C° 0 mm 6 mps 739 mmHg 65%
    08:00 +8°C° 0 mm 7 mps 739 mmHg 62%
    09:00 +10°C° 0 mm 7 mps 738 mmHg 58%
    10:00 +12°C° 0 mm 7 mps 738 mmHg 55%
    11:00 +13°C° 0 mm 8 mps 737 mmHg 51%
    12:00 +15°C° 0.1 mm 8 mps 737 mmHg 51%
    13:00 +15°C° 0.1 mm 8 mps 736 mmHg 51%
    14:00 +16°C° 0.1 mm 8 mps 735 mmHg 51%
    15:00 +14°C° 0.5 mm 7 mps 735 mmHg 61%
    16:00 +12°C° 0.5 mm 5 mps 735 mmHg 71%
    17:00 +10°C° 0.5 mm 4 mps 734 mmHg 81%
    18:00 +7°C° 2 mm 4 mps 734 mmHg 84%
    19:00 +6°C° 2 mm 4 mps 734 mmHg 88%
    20:00 +5°C° 2 mm 4 mps 734 mmHg 91%
    21:00 +3°C° 0.5 mm 4 mps 735 mmHg 90%
    22:00 +1°C° 0.5 mm 5 mps 735 mmHg 89%
    23:00 0°C° 0.5 mm 5 mps 735 mmHg 88%

    14 April, Tuesday

    Time Temperature Precipitation Wind Pressure Humidity
    00:00 0°C° 0 mm 5 mps 735 mmHg 82%
    01:00 -1°C° 0 mm 5 mps 736 mmHg 77%
    02:00 -1°C° 0 mm 5 mps 736 mmHg 71%
    03:00 -2°C° 0 mm 4 mps 737 mmHg 72%
    04:00 -2°C° 0 mm 4 mps 737 mmHg 72%
    05:00 -3°C° 0 mm 4 mps 737 mmHg 73%
    06:00 -3°C° 0 mm 4 mps 737 mmHg 69%
    07:00 -2°C° 0 mm 4 mps 738 mmHg 66%
    08:00 -2°C° 0 mm 4 mps 738 mmHg 62%
    09:00 -1°C° 0 mm 4 mps 738 mmHg 57%
    10:00 +1°C° 0 mm 4 mps 738 mmHg 52%
    11:00 +3°C° 0 mm 4 mps 738 mmHg 48%
    12:00 +3°C° 0 mm 4 mps 738 mmHg 45%
    13:00 +4°C° 0 mm 4 mps 738 mmHg 43%
    14:00 +5°C° 0 mm 4 mps 738 mmHg 41%
    15:00 +4°C° 0.2 mm 4 mps 737 mmHg 44%
    16:00 +4°C° 0.2 mm 4 mps 737 mmHg 47%
    17:00 +3°C° 0.2 mm 5 mps 737 mmHg 50%
    18:00 +3°C° 0.1 mm 4 mps 737 mmHg 58%
    19:00 +2°C° 0.1 mm 3 mps 737 mmHg 65%
    20:00 +1°C° 0.1 mm 2 mps 738 mmHg 73%
    21:00 +1°C° 0 mm 2 mps 738 mmHg 76%
    22:00 -1°C° 0 mm 2 mps 738 mmHg 79%
    23:00 -2°C° 0 mm 2 mps 738 mmHg 83%

    15 April, Wednesday

    Time Temperature Precipitation Wind Pressure Humidity
    00:00 -2°C° 0 mm 2 mps 738 mmHg 84%
    01:00 -2°C° 0 mm 2 mps 738 mmHg 86%
    02:00 -4°C° 0 mm 3 mps 739 mmHg 87%
    03:00 -4°C° 0 mm 3 mps 739 mmHg 88%
    04:00 -4°C° 0 mm 3 mps 739 mmHg 90%
    05:00 -4°C° 0 mm 3 mps 740 mmHg 91%
    06:00 -1°C° 0 mm 3 mps 740 mmHg 84%
    07:00 -1°C° 0 mm 4 mps 741 mmHg 78%
    08:00 0°C° 0 mm 5 mps 741 mmHg 71%
    09:00 +1°C° 0 mm 5 mps 741 mmHg 63%
    10:00 +3°C° 0 mm 6 mps 741 mmHg 56%
    11:00 +4°C° 0 mm 6 mps 742 mmHg 48%
    12:00 +4°C° 0 mm 6 mps 742 mmHg 47%
    13:00 +5°C° 0 mm 7 mps 742 mmHg 45%
    14:00 +5°C° 0 mm 7 mps 742 mmHg 44%
    15:00 +5°C° 0 mm 7 mps 742 mmHg 45%
    16:00 +5°C° 0 mm 7 mps 742 mmHg 46%
    17:00 +4°C° 0 mm 7 mps 742 mmHg 47%
    18:00 +3°C° 0 mm 6 mps 742 mmHg 53%
    19:00 +2°C° 0 mm 6 mps 743 mmHg 58%
    20:00 +1°C° 0 mm 5 mps 743 mmHg 64%
    21:00 0°C° 0 mm 5 mps 743 mmHg 66%
    22:00 0°C° 0 mm 5 mps 743 mmHg 68%
    23:00 -1°C° 0 mm 5 mps 743 mmHg 70%
    Show more